Time,TemperatureF,DewpointF,PressureIn,WindDirection,WindDirectionDegrees,WindSpeedMPH,WindSpeedGustMPH,Humidity,HourlyPrecipIn,Conditions,Clouds,dailyrainin,SoftwareType,DateUTC
2013-02-27 00:11:00,32.5,32.3,29.40,ESE,112,2.7,-999.0,99,-99.99,,,0.00,Acu-Link.com,2013-02-27 05:11:00,
2013-02-27 00:37:00,32.5,32.3,29.40,ESE,112,3.7,-999.0,99,-99.99,,,0.00,Acu-Link.com,2013-02-27 05:37:00,
2013-02-27 00:56:00,32.5,32.3,29.40,ESE,112,6.3,-999.0,99,-99.99,,,0.00,Acu-Link.com,2013-02-27 05:56:00,
2013-02-27 01:12:00,32.9,32.7,29.38,ENE,67,6.3,-999.0,99,-99.99,,,0.00,Acu-Link.com,2013-02-27 06:12:00,
2013-02-27 01:56:00,32.9,32.7,29.37,ESE,112,4.2,-999.0,99,-99.99,,,0.00,Acu-Link.com,2013-02-27 06:56:00,
2013-02-27 02:12:00,32.9,32.7,29.37,East,90,4.7,-999.0,99,-99.99,,,0.00,Acu-Link.com,2013-02-27 07:12:00,
2013-02-27 02:30:00,32.9,32.7,29.37,ESE,112,3.7,-999.0,99,-99.99,,,0.00,Acu-Link.com,2013-02-27 07:30:00,
2013-02-27 03:00:00,32.9,32.7,29.37,South,180,2.2,-999.0,99,-99.99,,,0.00,Acu-Link.com,2013-02-27 08:00:00,
2013-02-27 03:21:00,32.7,32.5,29.35,NE,45,3.7,-999.0,99,-99.99,,,0.00,Acu-Link.com,2013-02-27 08:21:00,
2013-02-27 03:40:00,32.7,32.5,29.35,NE,45,2.2,-999.0,99,-99.99,,,0.00,Acu-Link.com,2013-02-27 08:40:00,
2013-02-27 03:56:00,32.7,32.5,29.35,ESE,112,3.7,-999.0,99,-99.99,,,0.00,Acu-Link.com,2013-02-27 08:56:00,
2013-02-27 04:28:00,32.7,32.5,29.35,East,90,2.7,-999.0,99,-99.99,,,0.00,Acu-Link.com,2013-02-27 09:28:00,
2013-02-27 04:44:00,32.5,32.3,29.35,SE,135,1.7,-999.0,99,-99.99,,,0.00,Acu-Link.com,2013-02-27 09:44:00,
2013-02-27 05:02:00,32.5,32.3,29.35,East,90,2.7,-999.0,99,-99.99,,,0.00,Acu-Link.com,2013-02-27 10:02:00,
2013-02-27 05:18:00,32.5,32.3,29.35,SE,135,2.2,-999.0,99,-99.99,,,0.00,Acu-Link.com,2013-02-27 10:18:00,
2013-02-27 05:37:00,32.5,32.3,29.35,ENE,67,2.2,-999.0,99,-99.99,,,0.00,Acu-Link.com,2013-02-27 10:37:00,
2013-02-27 05:53:00,32.5,32.3,29.34,ENE,67,1.7,-999.0,99,-99.99,,,0.00,Acu-Link.com,2013-02-27 10:53:00,
2013-02-27 06:16:00,32.5,32.3,29.34,ENE,67,2.2,-999.0,99,-99.99,,,0.00,Acu-Link.com,2013-02-27 11:16:00,
2013-02-27 06:35:00,32.5,32.3,29.35,ENE,67,2.7,-999.0,99,-99.99,,,0.00,Acu-Link.com,2013-02-27 11:35:00,
2013-02-27 06:52:00,32.5,32.3,29.36,ESE,112,0.0,-999.0,99,-99.99,,,0.00,Acu-Link.com,2013-02-27 11:52:00,
2013-02-27 07:34:00,32.5,32.3,29.36,ESE,112,0.0,-999.0,99,-99.99,,,0.00,Acu-Link.com,2013-02-27 12:34:00,
2013-02-27 07:49:00,32.5,32.3,29.37,NE,45,0.0,-999.0,99,-99.99,,,0.00,Acu-Link.com,2013-02-27 12:49:00,
2013-02-27 08:04:00,32.9,32.7,29.38,NE,45,0.0,-999.0,99,-99.99,,,0.00,Acu-Link.com,2013-02-27 13:04:00,
2013-02-27 08:19:00,33.1,32.8,29.38,ENE,67,0.0,-999.0,99,-99.99,,,0.00,Acu-Link.com,2013-02-27 13:19:00,
2013-02-27 08:35:00,33.3,33.0,29.39,East,90,0.0,-999.0,99,-99.99,,,0.00,Acu-Link.com,2013-02-27 13:35:00,
2013-02-27 08:50:00,33.8,33.5,29.39,East,90,0.0,-999.0,99,-99.99,,,0.00,Acu-Link.com,2013-02-27 13:50:00,
2013-02-27 09:05:00,33.8,33.5,29.39,SE,135,0.0,-999.0,99,-99.99,,,0.00,Acu-Link.com,2013-02-27 14:05:00,
2013-02-27 09:24:00,34.3,34.0,29.39,South,180,1.7,-999.0,99,-99.99,,,0.00,Acu-Link.com,2013-02-27 14:24:00,
2013-02-27 09:39:00,35.2,34.9,29.39,ESE,112,1.7,-999.0,99,-99.99,,,0.00,Acu-Link.com,2013-02-27 14:39:00,
2013-02-27 09:54:00,35.6,35.1,29.39,ESE,112,2.2,-999.0,98,-99.99,,,0.00,Acu-Link.com,2013-02-27 14:54:00,
2013-02-27 10:09:00,35.4,34.9,29.40,South,180,2.7,-999.0,98,-99.99,,,0.00,Acu-Link.com,2013-02-27 15:09:00,
2013-02-27 10:26:00,35.6,35.1,29.39,SSW,202,3.2,-999.0,98,-99.99,,,0.02,Acu-Link.com,2013-02-27 15:26:00,
2013-02-27 11:06:00,37.0,35.2,29.40,West,270,3.7,-999.0,93,-99.99,,,0.03,Acu-Link.com,2013-02-27 16:06:00,
2013-02-27 11:21:00,37.2,35.4,29.40,WSW,247,2.2,-999.0,93,-99.99,,,0.05,Acu-Link.com,2013-02-27 16:21:00,
2013-02-27 11:37:00,37.2,35.4,29.41,WSW,247,0.0,-999.0,93,-99.99,,,0.06,Acu-Link.com,2013-02-27 16:37:00,
2013-02-27 11:57:00,37.2,35.4,29.41,SW,225,2.2,-999.0,93,-99.99,,,0.06,Acu-Link.com,2013-02-27 16:57:00,
2013-02-27 12:17:00,36.9,34.8,29.42,South,180,1.7,-999.0,92,-99.99,,,0.06,Acu-Link.com,2013-02-27 17:17:00,
2013-02-27 12:32:00,36.9,34.8,29.41,West,270,2.2,-999.0,92,-99.99,,,0.06,Acu-Link.com,2013-02-27 17:32:00,
2013-02-27 12:50:00,36.7,34.9,29.40,South,180,3.2,-999.0,93,-99.99,,,0.07,Acu-Link.com,2013-02-27 17:50:00,
2013-02-27 13:06:00,36.9,34.8,29.41,NNW,337,2.7,-999.0,92,-99.99,,,0.08,Acu-Link.com,2013-02-27 18:06:00,
2013-02-27 13:22:00,37.0,34.9,29.40,WSW,247,3.2,-999.0,92,-99.99,,,0.09,Acu-Link.com,2013-02-27 18:22:00,
2013-02-27 13:37:00,36.9,34.8,29.41,SW,225,3.7,-999.0,92,-99.99,,,0.10,Acu-Link.com,2013-02-27 18:37:00,
2013-02-27 13:52:00,36.1,34.3,29.41,WSW,247,2.7,-999.0,93,-99.99,,,0.11,Acu-Link.com,2013-02-27 18:52:00,
2013-02-27 14:07:00,36.1,34.3,29.40,SSW,202,2.2,-999.0,93,-99.99,,,0.13,Acu-Link.com,2013-02-27 19:07:00,
2013-02-27 14:23:00,36.1,34.3,29.40,West,270,2.7,-999.0,93,-99.99,,,0.15,Acu-Link.com,2013-02-27 19:23:00,
2013-02-27 14:38:00,36.0,34.2,29.40,West,270,2.7,-999.0,93,-99.99,,,0.15,Acu-Link.com,2013-02-27 19:38:00,
2013-02-27 14:53:00,35.6,34.0,29.41,West,270,0.0,-999.0,94,-99.99,,,0.16,Acu-Link.com,2013-02-27 19:53:00,
2013-02-27 15:09:00,35.8,34.2,29.41,West,270,1.1,-999.0,94,-99.99,,,0.17,Acu-Link.com,2013-02-27 20:09:00,
2013-02-27 15:24:00,35.8,34.2,29.42,South,180,1.1,-999.0,94,-99.99,,,0.18,Acu-Link.com,2013-02-27 20:24:00,
2013-02-27 15:39:00,35.6,34.0,29.42,SW,225,2.7,-999.0,94,-99.99,,,0.19,Acu-Link.com,2013-02-27 20:39:00,
2013-02-27 15:54:00,35.4,34.1,29.42,West,270,1.1,-999.0,95,-99.99,,,0.19,Acu-Link.com,2013-02-27 20:54:00,
2013-02-27 16:10:00,35.4,34.1,29.42,SSW,202,1.7,-999.0,95,-99.99,,,0.20,Acu-Link.com,2013-02-27 21:10:00,
2013-02-27 16:25:00,35.1,33.8,29.42,SW,225,2.2,-999.0,95,-99.99,,,0.20,Acu-Link.com,2013-02-27 21:25:00,
2013-02-27 16:44:00,35.1,33.8,29.43,SW,225,0.0,-999.0,95,-99.99,,,0.21,Acu-Link.com,2013-02-27 21:44:00,
2013-02-27 17:02:00,35.1,33.8,29.42,SW,225,2.2,-999.0,95,-99.99,,,0.21,Acu-Link.com,2013-02-27 22:02:00,
2013-02-27 17:25:00,34.5,33.5,29.43,SSW,202,0.0,-999.0,96,-99.99,,,0.21,Acu-Link.com,2013-02-27 22:25:00,
2013-02-27 17:52:00,34.0,33.7,29.43,WSW,247,1.1,-999.0,99,-99.99,,,0.21,Acu-Link.com,2013-02-27 22:52:00,
2013-02-27 18:25:00,33.4,33.1,29.45,SW,225,0.0,-999.0,99,-99.99,,,0.21,Acu-Link.com,2013-02-27 23:25:00,
2013-02-27 18:40:00,33.3,33.0,29.45,SW,225,1.7,-999.0,99,-99.99,,,0.21,Acu-Link.com,2013-02-27 23:40:00,
2013-02-27 18:57:00,33.3,33.0,29.46,South,180,0.0,-999.0,99,-99.99,,,0.21,Acu-Link.com,2013-02-27 23:57:00,
2013-02-27 19:15:00,32.7,32.5,29.45,South,180,0.0,-999.0,99,-99.99,,,0.21,Acu-Link.com,2013-02-28 00:15:00,
2013-02-27 19:45:00,32.5,32.3,29.45,South,180,1.7,-999.0,99,-99.99,,,0.21,Acu-Link.com,2013-02-28 00:45:00,
2013-02-27 20:09:00,32.5,32.3,29.45,WNW,292,1.7,-999.0,99,-99.99,,,0.21,Acu-Link.com,2013-02-28 01:09:00,
2013-02-27 20:25:00,32.5,32.3,29.45,SSW,202,0.0,-999.0,99,-99.99,,,0.21,Acu-Link.com,2013-02-28 01:25:00,
2013-02-27 20:40:00,32.5,32.3,29.45,SW,225,1.1,-999.0,99,-99.99,,,0.21,Acu-Link.com,2013-02-28 01:40:00,
2013-02-27 20:56:00,32.5,32.3,29.45,SW,225,0.0,-999.0,99,-99.99,,,0.21,Acu-Link.com,2013-02-28 01:56:00,
2013-02-27 21:13:00,32.5,32.3,29.45,SW,225,0.0,-999.0,99,-99.99,,,0.21,Acu-Link.com,2013-02-28 02:13:00,
2013-02-27 21:31:00,32.5,32.3,29.44,SW,225,0.0,-999.0,99,-99.99,,,0.21,Acu-Link.com,2013-02-28 02:31:00,
2013-02-27 21:46:00,32.4,32.2,29.45,WSW,247,0.0,-999.0,99,-99.99,,,0.21,Acu-Link.com,2013-02-28 02:46:00,
2013-02-27 22:27:00,32.2,32.0,29.44,WNW,292,0.0,-999.0,99,-99.99,,,0.21,Acu-Link.com,2013-02-28 03:27:00,
2013-02-27 22:45:00,32.2,32.0,29.44,SW,225,0.0,-999.0,99,-99.99,,,0.21,Acu-Link.com,2013-02-28 03:45:00,
2013-02-27 23:02:00,32.2,32.0,29.44,West,270,0.0,-999.0,99,-99.99,,,0.21,Acu-Link.com,2013-02-28 04:02:00,
2013-02-27 23:28:00,32.2,32.0,29.43,WSW,247,0.0,-999.0,99,-99.99,,,0.21,Acu-Link.com,2013-02-28 04:28:00,
2013-02-27 23:44:00,32.2,32.0,29.44,WSW,247,0.0,-999.0,99,-99.99,,,0.21,Acu-Link.com,2013-02-28 04:44:00,